User: anonymous   Login
Location: Aulnoy
(48.8410°N, 3.0967°E)
Time: 03:42:03
(UTC+00:00)
Language:

Cosmos 2322 Rocket - Orbit

View from above orbital plane
View from above orbital plane
View from above satellite
View from above satellite

Ground track
Ground track

The orbit data is extracted from the following two-line orbital elements,

1 23705U 95058B   23159.36727033  .00000012  00000-0  30585-4 0  9993
2 23705  71.0211 130.4568 0013818 219.9154 140.0954 14.15236087425607
Epoch (UTC): 08 June 2023 08:48:52
Eccentricity: 0.0013818
inclination: 71.0211°
perigee height: 831 km
apogee height: 851 km
right ascension of ascending node: 130.4568°
argument of perigee: 219.9154°
revolutions per day: 14.15236087
mean anomaly at epoch: 140.0954°
orbit number at epoch: 42560

The dashed part of the orbit path shows where the satellite is in the earth's shadow,  

DLR